Preview of NWS' New Version of Forecast
This preview is not operational and should not be used for support decisions.

Regional Weather Roundup (RWR)

Issued by National Weather Service (NWS)

                            
000
ASPQ40 PGUM 211010
RWRPQ 
WEATHER ROUNDUP FOR THE MARIANAS AND MICRONESIA
NATIONAL WEATHER SERVICE TIYAN GU
800 PM CHST SAT SEP 21 2019

GUZ001>004-211100-
MARIANA ISLANDS-
  
CITY           SKY/WX    TMP DP  RH WIND       PRES   REMARKS
GUAM AIRPORT   CLEAR     81  75  83 S3        29.85R                  
ANDERSEN AFB   MOCLDY    81  75  83 S3        29.86R                  
ROTA AIRPORT   PTCLDY    81  73  78 S6        29.82R                  
TINIAN AP      PTCLDY    81  77  89 CALM      29.84                   
SAIPAN AP      MOCLDY    82  77  83 SE5       29.85R HX  91           

$$

PMZ161-211100-
REPUBLIC OF PALAU-
  
CITY           SKY/WX    TMP DP  RH WIND       PRES   REMARKS
KOROR AP       CLOUDY    82  75  78 W6          N/A                   
KOROR WSO      NOT AVBL                                               

$$

PMZ171>174-211100-
FEDERATED STATES OF MICRONESIA-
  
CITY           SKY/WX    TMP DP  RH WIND       PRES   REMARKS
YAP AIRPORT    MOCLDY    84  77  79 NW9       29.86R HX  94           
CHUUK AP       MOCLDY    84  79  84 VRB3      29.87R HX  96           
POHNPEI AP     CLOUDY    82  77  83 SW9       29.86R HX  91           
POHNPEI WSO    MOCLDY    79  75  89 SE2       29.90R                  
KOSRAE AP      NOT AVBL                                               

$$

PMZ181-211100-
REPUBLIC OF THE MARSHALL ISLANDS-
  
CITY           SKY/WX    TMP DP  RH WIND       PRES   REMARKS
KWAJALEIN AP   PTCLDY    86  77  74 SW13      29.87S HX  97           
MAJURO AP      PTCLDY    84  77  79 SW13      29.88R HX  94           
MAJURO WSO     PTCLDY    86  75  70 SW15      29.87R HX  95           

$$